Regional Weather Roundup
Issued by NWS

Home | Current Version | Previous Version | Graphics & Text | Print | Product List | Glossary On
Versions: 1 2 3 4 5 6 7 8 9 10 11 12 13 14 15 16 17 18 19 20 21 22 23 24 25 26 27 28 29 30 31 32 33 34 35 36 37 38 39 40 41 42 43 44 45 46 47 48 49 50
000
ASUS43 KLOT 302209
RWRIL

ILLINOIS REGIONAL WEATHER ROUNDUP
NATIONAL WEATHER SERVICE CHICAGO/ROMEOVILLE IL
500 PM CDT SUN APR 30 2017

NOTE: "FAIR" INDICATES FEW OR NO CLOUDS BELOW 12,000 FEET WITH NO
SIGNIFICANT WEATHER AND/OR OBSTRUCTIONS TO VISIBILITY.

* THESE STATIONS ARE NOT UNDER NWS QUALITY CONTROL. THEY ALSO MAY NOT
  REPORT WEATHER SUCH AS PRECIPITATION OR FOG.

ILZ001-002-007-009-015-016-024-302300-
NORTHWEST ILLINOIS

CITY           SKY/WX    TMP DP  RH WIND       PRES   REMARKS
MOLINE         CLOUDY    49  46  90 E17       29.62F
STERLING*      LGT RAIN  48  46  93 E23       29.68F
SAVANNA*       CLOUDY    47  44  90 NE16G22   29.69F
$$

ILZ003-004-008-010-011-017-018-302300-
NORTH CENTRAL ILLINOIS

CITY           SKY/WX    TMP DP  RH WIND       PRES   REMARKS
ROCKFORD       CLOUDY    47  42  83 E17       29.74F
FREEPORT*      CLOUDY    45  43  93 E17G28    29.74F
ROCHELLE*      LGT RAIN  46  45  95 E17G23    29.72F
DE KALB*       CLOUDY    46  44  94 E18       29.74F
PERU*          LGT RAIN  49  48  95 E17       29.69F
$$

ILZ005-006-012>014-019>023-302300-
NORTHEAST ILLINOIS

CITY           SKY/WX    TMP DP  RH WIND       PRES   REMARKS
CHICAGO-OHARE  DRIZZLE   44  42  93 NE15      29.77F FOG
CHICAGO-MIDWAY DRIZZLE   45  44  97 N15G23    29.76F FOG
AURORA         LGT RAIN  46  44  93 NE16      29.74S FOG
LANSING*       LGT RAIN  45  45 100 N6        29.77S VSB 1
JOLIET*        CLOUDY    47  46  97 NE10G16   29.74S
WAUKEGAN       CLOUDY    42  42 100 NE13G21   29.76F FOG
DUPAGE AIRPORT CLOUDY    45  44  97 NE15      29.75F
KANKAKEE*      DRIZZLE   50  50  98 NE12      29.71F
WHEELING       CLOUDY    43  43 100 NE13G23   29.80S
MORRIS*        CLOUDY    46  45  95 NE8       29.72S
ROMEOVILLE*    DRIZZLE   45  45 100 NE14G21   29.75R
NORTHERLY ISL    N/A     43  42  97 MISG        N/A
$$

LMZ740>746-302300-
SOUTHERN LAKE MICHIGAN

STATION/POSITION SKY/WX   TEMP    WIND        PRES    VSBY  WAVE
                          AIR SEA DIR/SP/G                  HT/PER
                          (F)     (DEG/KT/KT) (MB)    (MI)  (FT/S)
SOUTHERN BUOY              41 41   30/ 16/ 17 1009.8          4/ 5
HARRISON CRIB              43      20/ 17/ 19   N/A
BURNHAM HARBOR             43      30/ 10/ 16   N/A
CALUMET HARBOR             43     360/  9/ 12 1007.8F
BURNS HARBOR               45      40/  8/  9 1008.5F
MICHIGAN CITY              45      30/  6/  7   N/A
MICHIGAN CITY 6N           45 49                N/A           3/ 5
ST. JOSEPH                 47 46   60/  6/  6 1008.3          2/ 5
$$

ILZ025>027-034>036-040-047-049-050-058-095>099-302300-
WEST-CENTRAL ILLINOIS

CITY           SKY/WX    TMP DP  RH WIND       PRES   REMARKS
QUINCY         CLOUDY    59  59 100 E9        29.47F
GALESBURG*     CLOUDY    49  49  99 NE14G20   29.58F
MACOMB*        CLOUDY    52  52 100 E20       29.58F
JACKSONVILLE*  CLOUDY    67  64  90 SE17      29.52F
PITTSFIELD*    CLOUDY    67  65  93 SE15G23   29.49F
$$

ILZ028>032-037-038-041>044-048-051>054-059>061-302300-
CENTRAL ILLINOIS

CITY           SKY/WX    TMP DP  RH WIND       PRES   REMARKS
PONTIAC        LGT RAIN  53  53  98 NE18      29.69F
BLOOMINGTON    HVY RAIN  58  57  97 NE10      29.65F FOG
DECATUR        CLOUDY    67  66  97 SE12      29.62F
PEORIA         LGT RAIN  52  52 100 E18       29.61F FOG
LACON*         DRIZZLE   50  50 100 E14       29.65F
LINCOLN*       DRIZZLE   67  66  98 SE9       29.60F
SPRINGFIELD    LGT RAIN  69  64  84 SE15G24   29.57F
TAYLORVILLE    CLOUDY    67  65  91 SE17      29.58F
$$

ILZ033-039-045-046-055>057-062-063-302300-
EAST-CENTRAL ILLINOIS

CITY           SKY/WX    TMP DP  RH WIND       PRES   REMARKS
CHAMPAIGN      LGT RAIN  66  64  93 SE16      29.65F
RANTOUL*       CLOUDY    67  66  96 SE12G18   29.66F
MATTOON        LGT RAIN  67  65  93 S14       29.65F
PARIS*         CLOUDY   N/A N/A N/A E9G16     29.67F
$$

ILZ079-100>102-302300-
SOUTHWEST ILLINOIS

CITY           SKY/WX    TMP DP  RH WIND       PRES   REMARKS
ALTON          CLOUDY    70  66  88 SE16      29.55F
BELLEVILLE     CLOUDY    71  71 100 E16G25    29.53F
CAHOKIA*       LGT RAIN  72  66  81 SE20G26   29.52F
$$

ILZ064>066-069>071-074>076-080>082-084>086-088>090-092>094-302300-
SOUTH-CENTRAL ILLINOIS

CITY           SKY/WX    TMP DP  RH WIND       PRES   REMARKS
CARBONDALE     CLOUDY    70  69  97 SE10      29.60F
CAIRO*         CLOUDY    71  66  84 S18G28    29.64S
EFFINGHAM*     CLOUDY    69  68  98 SE12      29.65F
MARION         CLOUDY    72  72 100 S17       29.64F
MT. VERNON     CLOUDY    71  67  87 S12       29.63F
CENTRALIA*     CLOUDY    71  68  90 SE18      29.59F
SALEM*         CLOUDY    71  66  85 SE9G18    29.61F
METROPOLIS*    CLOUDY    73  68  84 S9        29.67S
$$

ILZ067-068-072-073-078-083-087-091-302300-
SOUTHEAST ILLINOIS

CITY           SKY/WX    TMP DP  RH WIND       PRES   REMARKS
LAWRENCEVILLE  CLOUDY    71  68  90 SE18      29.67F
FLORA*         CLOUDY    72  68  87 S15G21    29.65F
FAIRFIELD*     CLOUDY    71  68  88 SE9       29.64F
HARRISBURG*    CLOUDY    73  69  88 S18       29.66S
ROBINSON*      CLOUDY    69  67  93 S18G25    29.65F
CARMI*         CLOUDY    72  69  91 SE18      29.66F
$$

ABBREVIATIONS USED IN REMARKS
   TC - TEMPERATURE IN CELSIUS
  WCI - WIND CHILL INDEX
   HX - HEAT INDEX
  VSB - VISIBILITY
$$





USA.gov is the U.S. government's official web portal to all federal, state and local government web resources and services.